Retour au catalogue

OPS 4682 DEB

ActifPO
NORAD 19113·DEBRIS·🇺🇸 United States

Lancé Apr 3, 1965 depuis Vandenberg Space Force Base

Loading…

Prochains Passages (prochaines 24 heures)

TLE

FraisSource: Space-Track

Époque: Sep 11, 2026, 06:53 UTC

1 19113U 65027AQ  26254.28734823  .00000007  00000-0 -20916-5 0  9992
2 19113  90.2567  16.0897 0036195 190.8065 197.4305 13.06321172646203

Suivez OPS 4682 DEB en temps réel avec AllMySat

Download on the App Store